Regional Weather Roundup
Issued by NWS Boston, MA

Home | Current Version | Previous Version | Text Only | Print | Product List | Glossary On
Versions: 1 2 3 4 5 6 7 8 9 10 11 12 13 14 15 16 17 18 19 20 21 22 23 24 25 26 27 28 29 30 31 32 33 34 35 36 37 38 39 40 41 42 43 44 45 46 47 48 49 50
000
ASUS41 KBOX 291004
RWRBOX

REGIONAL WEATHER ROUNDUP
NATIONAL WEATHER SERVICE BOSTON/NORTON MA
600 AM EDT SUN MAR 29 2020

NOTE:  "FAIR" INDICATES FEW OR NO CLOUDS BELOW 12,000 FEET WITH NO
SIGNIFICANT WEATHER AND/OR OBSTRUCTIONS TO VISIBILITY.

MAZALL-291100-
EASTERN MASSACHUSETTS

CITY           SKY/WX    TMP DP  RH WIND       PRES   REMARKS
BOSTON         LGT RAIN  42  41  96 E12       30.17R FOG
BEVERLY        CLOUDY    43  40  89 SE9       30.17R FOG
LAWRENCE       CLOUDY    43  41  93 E6        30.19R FOG
BEDFORD        LGT RAIN  44  41  89 E13       30.15R FOG
BLUE HILL        N/A     41  41 100 E14G24    30.12R
NORWOOD        CLOUDY    45  41  86 E6        30.16R FOG
MARSHFIELD     CLOUDY    45  45 100 E9        30.15R FOG
PLYMOUTH       CLOUDY    44  42  93 E14       30.13F FOG
TAUNTON        CLOUDY    44  42  93 E9        30.12S FOG
NEW BEDFORD    CLOUDY    44  44 100 E13       30.11R FOG
$$

MAZALL-291100-
CAPE COD AND THE ISLANDS

CITY           SKY/WX    TMP DP  RH WIND       PRES   REMARKS
FALMOUTH       CLOUDY    43  45 100 SE17      30.12S
HYANNIS        CLOUDY    46  42  86 E14G20    30.11F
CHATHAM        LGT RAIN  43  40  89 E13       30.16S
PROVINCETOWN   CLOUDY    43  42  97 SE13      30.16S
NANTUCKET      CLOUDY    45  43  93 E18       30.11F
MARTHAS VNYRD  CLOUDY    46  43  89 E21G28    30.09F
$$

MAZALL-291100-
CENTRAL AND WESTERN MASSACHUSETTS

CITY           SKY/WX    TMP DP  RH WIND       PRES   REMARKS
WORCESTER      LGT RAIN  41  40  96 E9        30.11R VSB 1/2
FITCHBURG      LGT RAIN  43  40  89 E5        30.15R FOG
ORANGE         LGT RAIN  45  42  89 E5        30.12R FOG
SPRINGFIELD    DRIZZLE   44  44  99 NE3       30.10R
WESTFIELD      LGT RAIN  42  41  96 NE7       30.09S FOG
NORTH ADAMS    CLOUDY    44  39  82 E18       30.06R
PITTSFIELD     CLOUDY    42  39  89 E7        30.04S FOG
$$

RIZALL-291100-
RHODE ISLAND

CITY           SKY/WX    TMP DP  RH WIND       PRES   REMARKS
PROVIDENCE     LGT RAIN  45  44  97 E14       30.11R FOG
NEWPORT        LGT RAIN  46  43  89 E20G28    30.08R FOG
BLOCK ISLAND   LGT RAIN  44  43  96 E17G26    30.06R FOG
SMITHFIELD     MIX PCPN N/A N/A N/A E8        30.12R
WESTERLY       RAIN      48  43  82 E18G28    30.07R
$$

CTZALL-291100-
CONNECTICUT

CITY           SKY/WX    TMP DP  RH WIND       PRES   REMARKS
BRADLEY INTL   LGT RAIN  43  42  97 N8        30.09R FOG
HARTFORD       LGT RAIN  45  43  93 N7        30.09R
BRIDGEPORT     CLOUDY    46  45  96 E18G28    30.02F FOG
DANBURY        CLOUDY    43  42  97 NE7       30.02F FOG
GROTON         LGT RAIN  46  46 100 E22G29    30.05S
NEW HAVEN      CLOUDY    48  46  93 NE10      30.03F
CHESTER        LGT RAIN  46  46 100 E9G17     30.05R VSB 1
MERIDEN        HVY RAIN  44  42  93 N6        30.07R FOG
WILLIMANTIC    LGT RAIN  45  43  93 E5        30.09R
OXFORD         LGT RAIN  42  42 100 E12G18    30.03S FOG
$$

MEZ002-015-021-024-NHZ003-005-008-011-012-014-VTZ005-008-291100-
NORTHERN NEW ENGLAND

CITY           SKY/WX    TMP DP  RH WIND       PRES   REMARKS
PORTLAND ME    CLOUDY    43  38  82 E5        30.20S
BANGOR ME      CLOUDY    38  28  67 CALM      30.23R
CONCORD NH     CLOUDY    41  38  89 CALM      30.17R FOG
MANCHESTER NH  CLOUDY    43  41  93 E6        30.15R FOG
NASHUA NH      LGT RAIN  43  43 100 SE6       30.17R
PORTSMOUTH NH  LGT RAIN  41  41  97 E8        30.17F FOG
JAFFREY NH     LGT RAIN  43  42  97 VRB3      30.12R FOG
KEENE NH       LGT RAIN  42  42 100 CALM      30.13R FOG
BURLINGTON VT  CLOUDY    47  35  63 SE9       30.05F
MT. WASHINGTON CLOUDY    25  10  54 SE23        N/A  WCI  10
$$

NYZ052-076-291100-
EASTERN NEW YORK

CITY           SKY/WX    TMP DP  RH WIND       PRES   REMARKS
ALBANY         DRIZZLE   43  40  89 CALM      30.05F FOG
NEW YORK CITY  DRIZZLE   45  42  89 NE22      30.00R FOG
$$

ANZALL-291100-
MARINE OBSERVATIONS

STATION/POSITION TIME  TEMP    WIND        PRES    VSBY  WAVE
                       AIR SEA DIR/SP/G                  HT/PER
                 (UTC) (F)     (DEG/KT/KT) (MB)    (MI)  (FT/S)
BOSTON BUOY      0950   42 43   90/ 12/ 14 1020.6F         2/ 3
BUZZARDS BAY     0900           90/ 24/ 26 1019.1F
NANTUCKET SOUND  0940                        N/A           2/ 4
MASS BAY-STELLWA 0904   42 42  140/ 10/ 14 1019.9R  1 7/8  1/ 3
ISLE OF SHOALS   0900   41     100/  5/  5 1022.1R
S OF BLOCK IS    0930      44                N/A           7/ 6
$$

......................KEY.........................
  SKY/WX - SKY CONDITION/PRESENT WEATHER
  TMP    - TEMPERATURE IN FAHRENHEIT
  DWPT   - DEWPOINT IN FAHRENHEIT
  RH     - RELATIVE HUMIDITY IN PERCENT
  WIND   - DIRECTION AND SPEED IN MPH
  PRES   - MEAN SEA LEVEL PRESSURE IN INCHES OF HG
  WCI    - WIND CHILL INDEX
  VSB    - VISIBILITY IN MILES
  HX     - HEAT INDEX
  TC     - TEMPERATURE IN CELSIUS
  VRB    - VARIABLE WIND DIRECTION
  N/A    - NOT AVAILABLE



USA.gov is the U.S. government's official web portal to all federal, state and local government web resources and services.